Content
SEND FEEDBACK

Daily
Averages
Monthly
Summary
China

SHENZHEN, CHINA


Home > Asia > China
Elevation: 59 feet     Latitude: 22 33N     Longitude: 114 07E

WEATHER
 
SELECT A DAY
Number of Records: 172,832;   Date Range: 7/1/96 - 7/9/14
 
SHARE

PRINT THIS DATA

[ ← Previous Day ]
WEATHER ALMANAC - JANUARY 31, 2013
[ Next Day → ]
[ °C ]   °F
Weather ElementAverageHighLow
Temperature66.6 °F75 °F (2:00 pm)60.8 °F (1:00 am)
Dewpoint54.6 °F60.8 °F (4:00 pm)50 °F (3:00 am)
Humidity63.5 %83 % (8:00 pm)35 % (11:00 am)
Barometer30.15 in30.21 in (10:00 am)30.12 in (1:00 pm)
Wind Speed5.8 mph11.2 mph (11:00 pm)
Weather ElementAverage
Visibility5.6 mi
Wind DirectionSE (139.4 °)

Weather ElementTotal
Precipitation---
Cooling Degree Days2.9 (Base 65)
Growing Degree Days17.9 (Base 50)
Averaged from 31 records on January 31, 2013
WEATHER CONDITIONS BREAKOUT
WIND DIRECTION BREAKOUT
WEATHER BY HOUR - JANUARY 31, 2013
[ °C ]   °F
Local TimeTemperatureDewpointHumidityBarometerVisibilityWind DirectionWind SpeedGust SpeedPrecipitationEventsConditions
1:00 AM60.8 °F53.6 °F77 %30.15 inSE (130°)6.7 mphClear
2:00 AM62.0 °F52.0 °F61 %30.17 in6.0 miNE (40°)4.5 mphClear
2:00 AM62.6 °F53.6 °F72 %30.15 in5.0 miSE (130°)6.7 mph
3:00 AM62.6 °F50.0 °F63 %30.15 in5.0 miESE (120°)8.9 mph
4:00 AM60.8 °F50.0 °F68 %30.15 inSE (130°)8.9 mphClear
5:00 AM62.0 °F51.0 °F58 %30.15 in6.0 miNE (40°)6.7 mphHaze
5:00 AM60.8 °F50.0 °F68 %30.15 inEast (80°)4.5 mphClear
6:00 AM60.8 °F50.0 °F68 %30.15 in5.0 miVariable2.2 mph
7:00 AM60.8 °F51.8 °F72 %30.18 in4.3 miVariable2.2 mph
8:00 AM63.0 °F51.0 °F55 %30.19 in7.0 miENE (70°)4.5 mphScattered Clouds
8:00 AM64.4 °F51.8 °F64 %30.18 in4.3 miSE (130°)4.5 mph
9:00 AM66.2 °F51.8 °F60 %30.18 in5.0 miESE (120°)6.7 mph
10:00 AM68.0 °F53.6 °F60 %30.21 in5.0 miENE (70°)6.7 mph
11:00 AM72.0 °F50.0 °F35 %30.21 in7.0 miENE (70°)4.5 mphScattered Clouds
11:00 AM71.6 °F51.8 °F50 %30.18 in5.0 miSE (140°)6.7 mph
12:00 PM69.8 °F57.2 °F64 %30.18 in4.3 miNW (310°)6.7 mph
1:00 PM69.8 °F57.2 °F64 %30.12 in4.3 miWest (280°)4.5 mph
2:00 PM75.0 °F53.0 °F36 %30.14 in10.0 miEast (90°)6.7 mphScattered Clouds
2:00 PM71.6 °F55.4 °F57 %30.12 in4.3 miWNW (290°)4.5 mph
3:00 PM71.6 °F57.2 °F60 %30.12 in5.0 miWest (260°)4.5 mph
4:00 PM71.6 °F60.8 °F69 %30.12 inWSW (250°)4.5 mphClear
5:00 PM72.0 °F54.0 °F44 %30.14 in9.0 miENE (70°)4.5 mphScattered Clouds
5:00 PM69.8 °F60.8 °F73 %30.12 inSW (230°)4.5 mphClear
6:00 PM68.0 °F60.8 °F78 %30.12 inSSW (210°)4.5 mphClear
7:00 PM68.0 °F60.8 °F78 %30.15 in4.3 miSSW (200°)6.7 mph
8:00 PM68.0 °F54.0 °F50 %30.17 in9.0 miENE (70°)2.2 mphPartly Cloudy
8:00 PM66.2 °F60.8 °F83 %30.15 in3.7 miSouth (190°)8.9 mph
9:00 PM66.2 °F60.8 °F83 %30.15 in3.1 miSouth (190°)6.7 mphMist
10:00 PM66.2 °F60.8 °F83 %30.15 in3.1 miSouth (190°)6.7 mphMist
11:00 PM65.0 °F52.0 °F53 %30.14 in9.0 miENE (70°)8.9 mphPartly Cloudy
11:00 PM68.0 °F55.4 °F64 %30.12 inSSE (150°)11.2 mphClear
Hourly data recorded from ZGSZ, located miles away from Shenzhen, China







STORIES FROM OUR PARTNERS